[[{"header":{"parameterUnit":"m.s-1","parameterCategory":1,"la1":30.2991,"la2":30.254,"lo1":-89.0895,"lo2":-89.0444,"dx":0.0017,"dy":0.0017,"nx":28,"ny":28,"refTime":"2022-12-02T09:00:00:Z","depth":0,"parameterNumber":2,"parameterNumberName":"U-component_of_WINDS"},"data":[0,0,0,0,0,0,0,0,0,0,0,0,0,0,0,0,0,0,0,0,0,0,0,0,0,0,0,0,0,0,0,0,0,0,0,0,0,0,0,0,0,0,0,0,0,0,0,0,0,0,0,0,0,0,0,0,0,0,-3.5154,-3.5155,0,-3.521,-3.5211,-3.5211,-3.5117,-3.5114,-3.511,-3.5107,-3.5168,-3.5173,-3.5177,0,0,0,0,0,0,0,0,0,0,0,0,0,-3.4969,-3.4973,-3.5154,-3.5155,-3.5156,-3.521,-3.5211,-3.5211,-3.5117,-3.5113,-3.511,-3.5106,-3.5167,-3.5172,-3.5178,0,0,0,0,0,0,0,0,0,0,0,0,0,-3.504,-3.4975,-3.5154,-3.5115,-3.5112,-3.521,-3.5211,-3.5212,-3.5118,-3.5113,-3.5109,-3.5104,-3.5165,-3.5171,-3.5178,-3.5317,0,0,-3.5199,-3.5202,0,0,0,0,0,0,0,0,-3.5036,-3.5047,-3.512,-3.5118,-3.5115,-3.5151,-3.5168,-3.5247,-3.5119,-3.5116,-3.5107,-3.5102,-3.5167,-3.5173,-3.5194,-3.532,-3.5323,-3.52,-3.5204,-3.5207,-3.5209,0,0,0,0,0,0,0,-3.5031,-3.5044,-3.5176,-3.5122,-3.5118,-3.5096,-3.5101,-3.5182,-3.5168,-3.5116,-3.5109,-3.5117,-3.5164,-3.5188,-3.5195,-3.5324,-3.52,-3.5206,-3.521,-3.5213,-3.5565,-3.557,0,0,0,0,0,0,-3.5031,-3.5041,-3.5175,-3.5178,-3.5063,-3.5103,-3.5108,-3.5145,-3.5167,-3.5165,-3.5121,-3.5112,-3.5178,-3.5187,-3.5197,-3.5359,-3.5207,-3.5214,-3.5218,-3.556,-3.5566,-3.5572,0,0,0,0,0,0,-3.5027,-3.5044,-3.5172,-3.5108,-3.5122,-3.5111,-3.5153,-3.5148,-3.5171,-3.517,-3.5168,-3.5147,-3.5175,-3.5187,-3.5287,-3.536,-3.5217,-3.5223,-3.5554,-3.5562,-3.5569,-3.5687,0,0,0,0,0,0,-3.5022,-3.5043,-3.5095,-3.5109,-3.5126,-3.5262,-3.5158,-3.5153,-3.5183,-3.5173,-3.5194,-3.5194,-3.5172,-3.5278,-3.5294,-3.5367,-3.5228,-3.5547,-3.5558,-3.5567,-3.5677,-3.5698,-3.5716,0,0,0,0,0,-3.5016,-3.5127,-3.5098,-3.5115,-3.5191,-3.5266,-3.5276,-3.5248,-3.519,-3.5242,-3.5241,-3.5193,-3.535,-3.5289,-3.5307,-3.5383,-3.5543,-3.5555,-3.5566,-3.5668,-3.5694,-3.5716,0,0,0,0,0,0,-3.5123,-3.5128,-3.5096,-3.5215,-3.5241,-3.525,-3.5315,-3.5276,-3.532,-3.5308,-3.5273,-3.5278,-3.5386,-3.5395,-3.5326,-3.5518,-3.5437,-3.5453,-3.5508,-3.5533,-3.5552,-3.5547,-3.5234,0,0,0,0,0,-3.5161,-3.522,-3.5222,-3.5327,-3.5341,-3.5327,-3.5358,-3.5334,-3.536,-3.537,-3.5377,-3.5405,-3.546,-3.5497,-3.5548,-3.5678,-3.5681,-3.5739,-3.5759,-3.5775,-3.5789,-3.5857,-3.5882,-3.5611,-3.561,-3.561,0,0,-3.5239,-3.5249,-3.5289,-3.5349,-3.5366,-3.5429,-3.5336,-3.5407,-3.5454,-3.5382,-3.5476,-3.5482,-3.551,-3.5626,-3.5677,-3.5636,-3.5865,-3.579,-3.5803,-3.5808,-3.5872,-3.5897,-3.592,-3.5618,-3.5617,-3.5616,0,0,-3.5412,-3.5427,-3.5514,-3.5533,-3.5559,-3.5549,-3.557,-3.5585,-3.5586,-3.568,-3.5626,-3.5682,-3.5779,-3.58,-3.5824,-3.6006,-3.5963,-3.6024,-3.6127,-3.6194,-3.6215,-3.6234,-3.6297,-3.632,-3.6038,-3.6038,-3.6039,0,-3.5506,-3.5598,-3.5565,-3.5639,-3.5667,-3.5603,-3.5692,-3.5712,-3.5755,-3.5776,-3.5729,-3.5848,-3.5863,-3.5982,-3.6026,-3.6048,-3.6071,-3.602,-3.6214,-3.6233,-3.625,-3.631,-3.6334,-3.6045,-3.6045,-3.6044,-3.6043,0,-3.5711,-3.5776,-3.5844,-3.5884,-3.592,-3.6002,-3.5982,-3.6022,-3.5995,-3.599,-3.6086,-3.6101,-3.6153,-3.618,-3.6156,-3.6296,-3.6269,-3.622,-3.6137,-3.6283,-3.6339,-3.6362,-3.6056,-3.6053,-3.6051,-3.6049,0,0,-3.5953,-3.5974,-3.5999,-3.6016,-3.604,-3.609,-3.6169,-3.6219,-3.6253,-3.6285,-3.635,-3.6433,-3.6386,-3.6413,-3.6391,-3.645,-3.659,-3.6392,-3.6392,-3.6427,-3.6744,-3.6779,-3.6806,-3.6562,-3.6567,-3.657,-3.674,0,-3.6124,-3.6257,-3.623,-3.6362,-3.642,-3.6361,-3.643,-3.6453,-3.645,-3.65,-3.6497,-3.6555,-3.6491,-3.6506,-3.6562,-3.6562,-3.6653,-3.6549,-3.6622,-3.6625,-3.6614,-3.6835,-3.6874,-3.7033,-3.6762,-3.6766,-3.6769,0,-3.634,-3.6378,-3.6515,-3.6529,-3.6553,-3.6615,-3.6657,-3.6706,-3.6731,-3.6725,-3.6755,-3.6721,-3.6799,-3.6717,-3.6824,-3.6754,-3.6783,-3.6787,-3.6792,-3.6796,-3.6704,-3.6844,-3.7084,-3.7107,-3.6803,-3.68,-3.6798,0,-3.65,-3.6586,-3.6678,-3.6695,-3.6714,-3.6759,-3.6769,-3.6789,-3.682,-3.6859,-3.6878,-3.6926,-3.6952,-3.699,-3.697,-3.6912,-3.708,-3.6996,-3.7076,-3.7077,-3.7113,-3.711,-3.7359,-3.7135,-3.7135,-3.7135,-3.7134,0,-3.6693,-3.6778,-3.675,-3.6807,-3.6901,-3.687,-3.6964,-3.6967,-3.6986,-3.7042,-3.6995,-3.705,-3.7021,-3.7073,-3.7058,-3.7148,-3.7161,-3.7158,-3.7152,-3.7161,-3.7161,-3.7177,-3.7164,-3.7141,-3.714,-3.7138,-3.7137,0,-3.6886,-3.6871,-3.6967,-3.6977,-3.6982,-3.7051,-3.7059,-3.7112,-3.7106,-3.7178,-3.7193,-3.7184,-3.7243,-3.7227,-3.7292,-3.7282,-3.7395,-3.7377,-3.7386,-3.738,-3.746,-3.7452,-3.7726,-3.7759,-3.7517,-3.7519,-3.7521,0,-3.7008,-3.7072,-3.7089,-3.7123,-3.7136,-3.7192,-3.7223,-3.7195,-3.723,-3.7263,-3.7312,-3.7366,-3.7408,-3.7505,-3.7505,-3.7554,-3.7535,-3.7628,-3.7542,-3.7547,-3.7533,-3.7528,-3.7534,-3.7644,-3.7647,-3.7649,-3.7651,0,-3.7226,-3.7216,-3.7262,-3.7306,-3.7344,-3.7378,-3.7407,-3.7438,-3.7412,-3.7454,-3.7512,-3.7545,-3.761,-3.7665,-3.7709,-3.772,-3.7681,-3.7678,-3.7699,-3.7706,-3.7707,-3.7705,-3.7429,-3.7671,-3.7669,-3.7668,-3.7667,-3.7666,-3.7386,-3.7439,-3.7459,-3.7512,-3.7531,-3.7559,-3.7609,-3.7609,-3.7657,-3.7706,-3.7688,-3.7755,-3.7778,-3.7834,-3.7851,-3.7903,-3.7868,-3.7899,-3.7906,-3.7913,-3.7922,-3.7702,-3.7912,-3.7911,-3.7911,-3.791,-3.791,0,-3.7599,-3.7609,-3.7658,-3.7699,-3.7741,-3.7701,-3.7731,-3.7769,-3.7828,-3.7852,-3.7894,-3.7961,-3.8014,-3.8017,-3.8067,-3.8108,-3.8091,-3.8122,-3.8117,-3.8119,-3.7952,-3.7928,-3.8134,-3.8134,-3.8134,-3.8134,-3.8134,-3.8134,-3.7715,-3.7802,-3.7794,-3.7891,-3.79,-3.7964,-3.7985,-3.8011,-3.8029,-3.8106,-3.8149,-3.8151,-3.8167,-3.8217,-3.8263,-3.8263,-3.8282,-3.8319,-3.8311,-3.8154,-3.8132,-3.811,-3.8087,-3.8324,-3.8324,-3.8474,-3.8475,-3.8477]},{"header":{"parameterUnit":"m.s-1","parameterCategory":1,"la1":30.2991,"la2":30.254,"lo1":-89.0895,"lo2":-89.0444,"dx":0.0017,"dy":0.0017,"nx":28,"ny":28,"refTime":"2022-12-02T09:00:00:Z","depth":0,"parameterNumber":3,"parameterNumberName":"V-component_of_WINDS"},"data":[0,0,0,0,0,0,0,0,0,0,0,0,0,0,0,0,0,0,0,0,0,0,0,0,0,0,0,0,0,0,0,0,0,0,0,0,0,0,0,0,0,0,0,0,0,0,0,0,0,0,0,0,0,0,0,0,0,0,-1.4693,-1.4692,0,-1.4597,-1.4596,-1.4595,-1.4553,-1.4553,-1.4553,-1.4553,-1.4449,-1.4446,-1.4443,0,0,0,0,0,0,0,0,0,0,0,0,0,-1.4831,-1.4828,-1.4693,-1.4692,-1.469,-1.4597,-1.4596,-1.4594,-1.4553,-1.4553,-1.4553,-1.4553,-1.445,-1.4446,-1.4443,0,0,0,0,0,0,0,0,0,0,0,0,0,-1.4756,-1.4828,-1.4693,-1.4659,-1.4654,-1.4597,-1.4596,-1.4594,-1.4553,-1.4553,-1.4553,-1.4553,-1.4451,-1.4447,-1.4442,-1.441,0,0,-1.4429,-1.4427,0,0,0,0,0,0,0,0,-1.4761,-1.4751,-1.4665,-1.4661,-1.4656,-1.4587,-1.4606,-1.4532,-1.4552,-1.4591,-1.4553,-1.4553,-1.4494,-1.4486,-1.4468,-1.4406,-1.4401,-1.4428,-1.4426,-1.4424,-1.4423,0,0,0,0,0,0,0,-1.4766,-1.4755,-1.4655,-1.4663,-1.4658,-1.4645,-1.4634,-1.4592,-1.4542,-1.4588,-1.4584,-1.4574,-1.4492,-1.4472,-1.4465,-1.44,-1.4429,-1.4425,-1.4422,-1.442,-1.43,-1.4299,0,0,0,0,0,0,-1.4778,-1.476,-1.4658,-1.4652,-1.471,-1.4642,-1.4631,-1.4609,-1.4543,-1.4533,-1.4574,-1.4572,-1.4479,-1.447,-1.4461,-1.4415,-1.4424,-1.442,-1.4417,-1.43,-1.43,-1.4299,0,0,0,0,0,0,-1.4781,-1.4769,-1.4662,-1.4705,-1.469,-1.4639,-1.4615,-1.4607,-1.4587,-1.4532,-1.4522,-1.4563,-1.4479,-1.4467,-1.4422,-1.4411,-1.4418,-1.4414,-1.4301,-1.43,-1.4299,-1.4327,0,0,0,0,0,0,-1.4785,-1.477,-1.476,-1.4705,-1.4688,-1.4628,-1.4615,-1.4605,-1.458,-1.4577,-1.452,-1.451,-1.4478,-1.4429,-1.4418,-1.4405,-1.441,-1.4302,-1.4301,-1.43,-1.4326,-1.4327,-1.4327,0,0,0,0,0,-1.479,-1.4772,-1.476,-1.4748,-1.4675,-1.4627,-1.4617,-1.4583,-1.458,-1.4567,-1.4531,-1.4512,-1.4415,-1.4425,-1.4412,-1.4398,-1.4302,-1.4301,-1.43,-1.4326,-1.4327,-1.4327,0,0,0,0,0,0,-1.4826,-1.4764,-1.4751,-1.4715,-1.4677,-1.462,-1.4604,-1.4585,-1.4546,-1.4545,-1.4501,-1.4488,-1.4446,-1.4418,-1.443,-1.436,-1.4356,-1.4352,-1.4381,-1.4381,-1.4381,-1.4388,-1.4407,0,0,0,0,0,-1.4831,-1.48,-1.4746,-1.4719,-1.4701,-1.4656,-1.4634,-1.461,-1.4568,-1.4551,-1.4512,-1.447,-1.4429,-1.4404,-1.4364,-1.4322,-1.4306,-1.4305,-1.4306,-1.4306,-1.4303,-1.4273,-1.4271,-1.4295,-1.4295,-1.4295,0,0,-1.4838,-1.48,-1.4783,-1.4725,-1.4693,-1.4658,-1.4642,-1.4608,-1.4581,-1.4545,-1.4501,-1.447,-1.4419,-1.4375,-1.4353,-1.435,-1.4292,-1.4305,-1.4305,-1.4302,-1.4271,-1.4269,-1.4267,-1.4294,-1.4294,-1.4294,0,0,-1.4834,-1.4804,-1.4776,-1.4744,-1.4696,-1.4665,-1.4658,-1.4604,-1.4582,-1.4537,-1.4508,-1.4473,-1.4406,-1.4369,-1.4342,-1.4319,-1.4298,-1.4307,-1.4308,-1.428,-1.4278,-1.4276,-1.4263,-1.426,-1.4304,-1.4304,-1.4304,0,-1.4849,-1.4799,-1.4764,-1.473,-1.4703,-1.467,-1.4639,-1.4608,-1.4549,-1.4529,-1.4526,-1.4437,-1.4401,-1.4345,-1.4339,-1.4319,-1.4306,-1.4313,-1.4281,-1.4279,-1.4276,-1.4264,-1.426,-1.4305,-1.4305,-1.4305,-1.4305,0,-1.4818,-1.4783,-1.4766,-1.4709,-1.468,-1.4648,-1.4604,-1.4579,-1.4556,-1.4524,-1.4475,-1.443,-1.4378,-1.4363,-1.4341,-1.4302,-1.4301,-1.429,-1.4285,-1.4276,-1.4263,-1.4259,-1.4307,-1.4306,-1.4306,-1.4306,0,0,-1.4837,-1.4759,-1.4753,-1.4724,-1.4666,-1.4637,-1.46,-1.4551,-1.4527,-1.4486,-1.4451,-1.4392,-1.4381,-1.435,-1.4322,-1.4298,-1.4276,-1.4289,-1.4287,-1.4285,-1.4225,-1.4232,-1.4227,-1.4263,-1.4262,-1.4261,-1.4228,0,-1.4823,-1.4759,-1.4724,-1.4673,-1.4638,-1.4603,-1.4571,-1.4529,-1.4497,-1.4459,-1.4423,-1.4381,-1.4371,-1.4351,-1.4325,-1.4285,-1.4263,-1.4287,-1.4226,-1.4224,-1.4238,-1.4221,-1.423,-1.4201,-1.4223,-1.4222,-1.4222,0,-1.4799,-1.4758,-1.4704,-1.4646,-1.4629,-1.4601,-1.455,-1.4516,-1.4466,-1.4443,-1.4407,-1.4379,-1.4334,-1.4333,-1.4268,-1.4284,-1.4257,-1.4232,-1.423,-1.4222,-1.4222,-1.421,-1.4192,-1.4186,-1.4214,-1.4215,-1.4216,0,-1.4814,-1.4745,-1.4703,-1.468,-1.4612,-1.4592,-1.4562,-1.4513,-1.4483,-1.4437,-1.4416,-1.4365,-1.4337,-1.4295,-1.4253,-1.4256,-1.419,-1.4186,-1.4167,-1.4167,-1.4154,-1.4155,-1.4128,-1.414,-1.414,-1.414,-1.414,0,-1.4801,-1.4769,-1.4708,-1.4682,-1.4642,-1.46,-1.4561,-1.4528,-1.4483,-1.4446,-1.4413,-1.4379,-1.4325,-1.4283,-1.4249,-1.4197,-1.4185,-1.4163,-1.4154,-1.4165,-1.4167,-1.4145,-1.4145,-1.4139,-1.4139,-1.4139,-1.414,0,-1.4811,-1.477,-1.4721,-1.466,-1.4643,-1.4616,-1.4561,-1.4532,-1.4497,-1.4451,-1.4437,-1.4382,-1.4329,-1.4282,-1.4213,-1.419,-1.4136,-1.4126,-1.4153,-1.4148,-1.413,-1.4131,-1.4086,-1.4076,-1.4098,-1.4097,-1.4097,0,-1.4806,-1.478,-1.4714,-1.4688,-1.4659,-1.4618,-1.4587,-1.4542,-1.4511,-1.4449,-1.4426,-1.4371,-1.4325,-1.4242,-1.4193,-1.4138,-1.4125,-1.4113,-1.4116,-1.4126,-1.412,-1.4121,-1.4116,-1.4113,-1.4113,-1.4113,-1.4113,0,-1.4798,-1.4778,-1.4736,-1.4686,-1.465,-1.4608,-1.4565,-1.4544,-1.449,-1.4456,-1.4402,-1.4367,-1.4294,-1.4239,-1.4177,-1.4142,-1.4116,-1.4112,-1.4103,-1.4114,-1.4129,-1.4117,-1.4151,-1.4113,-1.4113,-1.4113,-1.4113,-1.4113,-1.4798,-1.4771,-1.472,-1.4673,-1.4636,-1.4595,-1.4563,-1.4523,-1.4479,-1.4418,-1.4393,-1.4337,-1.4281,-1.4196,-1.416,-1.4113,-1.4108,-1.4098,-1.4095,-1.4092,-1.4092,-1.4138,-1.4102,-1.4102,-1.4102,-1.4102,-1.4102,0,-1.4786,-1.475,-1.4708,-1.4648,-1.4609,-1.459,-1.4539,-1.4507,-1.446,-1.4411,-1.4366,-1.4301,-1.4245,-1.419,-1.4131,-1.4103,-1.4089,-1.4088,-1.4089,-1.408,-1.4102,-1.4113,-1.41,-1.41,-1.41,-1.41,-1.41,-1.41,-1.4775,-1.4728,-1.4701,-1.4632,-1.4595,-1.4542,-1.4514,-1.4474,-1.4434,-1.4364,-1.4318,-1.4284,-1.423,-1.4165,-1.4111,-1.4096,-1.4074,-1.4076,-1.4057,-1.4078,-1.4079,-1.408,-1.409,-1.4072,-1.4072,-1.4038,-1.4038,-1.4038]}]]